Nancy Ochey FAFB, France

4:37 AM CEST on October 17, 2017 (GMT +0200)
Ochey Air Base

Weather History for LFSO - November, 2012

Change the Weather History Date:

Thursday, November 15, 2012

  Actual Average Record
Temperature  
Mean Temperature 34 °F -  
Max Temperature 35 °F 41 °F 60 °F (2006)
Min Temperature 33 °F 34 °F 24 °F (2007)
Degree Days  
Heating Degree Days 31    
Moisture  
Dew Point 36 °F    
Average Humidity 100    
Maximum Humidity 100    
Minimum Humidity 98    
Precipitation  
Precipitation 0.01 in - - ()
Sea Level Pressure  
Sea Level Pressure 30.18 in    
Wind  
Wind Speed 3 mph ()    
Max Wind Speed 6 mph    
Max Gust Speed -    
Visibility 0.3 miles    
Events Fog    
Averages and records for this station are not official NWS values.
T = Trace of Precipitation, MM = Missing Value Source: Averaged Metar Reports

Daily Weather History Graph

Daily Weather History Graph

Search for Another Location

Airport or City:

Trip Planner

Search our weather history database for the weather conditions in past years. The results will help you decide how hot, cold, wet, or windy it might be!

Date:

Astronomy

Nov. 15, 2012 Rise Set
Actual Time 7:44 AM CET 4:56 PM CET
Civil Twilight 7:10 AM CET 5:30 PM CET
Nautical Twilight 6:32 AM CET 6:08 PM CET
Astronomical Twilight 5:55 AM CET 6:45 PM CET
Moon 9:29 AM CET (11/15) 6:24 PM CET (11/15)
Length of Visible Light 10h 20m
Length of Day
9h 11m
Waxing Crescent, 4% of the Moon is Illuminated
Nov 15
Waxing Crescent
Nov 20
First Quarter
Nov 28
Full
Dec 6
Last Quarter
Dec 13
New

Hourly Weather History & Observations

Time (CET) Temp. Windchill Dew Point Humidity Pressure Visibility Wind Dir Wind Speed Gust Speed Precip Events Conditions
12:00 AM 37.4 °F 33.8 °F 37.4 °F 100% 30.21 in 0.1 mi East 4.6 mph - N/A Fog Fog
12:30 AM 37.4 °F 34.9 °F 37.4 °F 100% 30.21 in 0.1 mi East 3.5 mph - N/A Fog Fog
1:00 AM 37 °F - 37 °F 100% 30.28 in 0 mi East 3.5 mph - - Fog Heavy Fog
1:00 AM 37.4 °F 34.9 °F 37.4 °F 100% 30.21 in 0.1 mi East 3.5 mph - N/A Fog Fog
1:30 AM 37.4 °F 34.9 °F 37.4 °F 100% 30.21 in 0.1 mi East 3.5 mph - N/A Fog Fog
2:00 AM 37.4 °F 34.9 °F 37.4 °F 100% 30.21 in 0.1 mi Variable 3.5 mph - N/A Fog Fog
2:30 AM 37.4 °F - 37.4 °F 100% 30.21 in 0.1 mi ESE 2.3 mph - N/A Fog Fog
3:00 AM 37.4 °F 33.8 °F 37.4 °F 100% 30.21 in 0.1 mi ESE 4.6 mph - N/A Fog Fog
3:30 AM 37.4 °F - 37.4 °F 100% 30.21 in 0.1 mi Variable 2.3 mph - N/A Fog Fog
4:00 AM 35.6 °F - 35.6 °F 100% 30.21 in 0.1 mi Calm Calm - N/A Fog Fog
4:30 AM 35.6 °F - 35.6 °F 100% 30.18 in 0.1 mi Variable 1.2 mph - N/A Fog Fog
5:00 AM 35.6 °F - 35.6 °F 100% 30.21 in 0.2 mi Calm Calm - N/A Fog Fog
5:30 AM 35.6 °F - 35.6 °F 100% 30.18 in 0.2 mi Calm Calm - N/A Fog Fog
6:00 AM 35.6 °F - 35.6 °F 100% 30.18 in 0.1 mi Variable 2.3 mph - N/A Fog Fog
6:30 AM 35.6 °F 32.8 °F 35.6 °F 100% 30.18 in 0.1 mi Variable 3.5 mph - N/A Fog Fog
7:00 AM 35 °F - 35 °F 100% 30.25 in 0 mi East 3.5 mph - - Fog Heavy Fog
7:00 AM 35.6 °F 32.8 °F 35.6 °F 100% 30.18 in 0.1 mi East 3.5 mph - N/A Fog Fog
7:30 AM 35.6 °F - 35.6 °F 100% 30.18 in 0.2 mi Variable 2.3 mph - N/A Fog Fog
8:00 AM 33.8 °F - 33.8 °F 100% 30.18 in 0.2 mi Variable 2.3 mph - N/A Fog Fog
8:30 AM 35.6 °F 32.8 °F 35.6 °F 100% 30.21 in 0.2 mi East 3.5 mph - N/A Fog Fog
9:00 AM 35.6 °F 32.8 °F 35.6 °F 100% 30.21 in 0.1 mi East 3.5 mph - N/A Fog Fog
9:30 AM 35.6 °F 32.8 °F 35.6 °F 100% 30.21 in 0.2 mi ESE 3.5 mph - N/A Fog Fog
10:00 AM 35.6 °F 31.7 °F 35.6 °F 100% 30.21 in 0.2 mi ESE 4.6 mph - N/A Fog Fog
10:30 AM 35.6 °F 32.8 °F 35.6 °F 100% 30.21 in 0.2 mi East 3.5 mph - N/A Fog Fog
11:00 AM 35.6 °F 31.7 °F 35.6 °F 100% 30.21 in 0.2 mi ESE 4.6 mph - N/A Fog Fog
11:30 AM 35.6 °F 31.7 °F 35.6 °F 100% 30.18 in 0.3 mi ESE 4.6 mph - N/A Fog Fog
12:00 PM 35.6 °F 30.7 °F 35.6 °F 100% 30.18 in - East 5.8 mph - N/A Fog Fog
12:30 PM 35.6 °F 32.8 °F 35.6 °F 100% 30.18 in 0.6 mi ESE 3.5 mph - N/A Fog Fog
1:00 PM 36 °F - 36 °F 98% 30.23 in 1 mi ESE 3.5 mph - - Fog Heavy Fog
1:00 PM 35.6 °F 32.8 °F 35.6 °F 100% 30.18 in 0.4 mi ESE 3.5 mph - N/A Fog Fog
1:30 PM 35.6 °F 31.7 °F 35.6 °F 100% 30.15 in 0.2 mi SE 4.6 mph - N/A Fog Fog
2:00 PM 35.6 °F 31.7 °F 35.6 °F 100% 30.15 in 0.2 mi East 4.6 mph - N/A Fog Fog
2:30 PM 35.6 °F 31.7 °F 35.6 °F 100% 30.15 in 0.2 mi East 4.6 mph - N/A Fog Fog
3:00 PM 35.6 °F 31.7 °F 35.6 °F 100% 30.15 in 0.2 mi East 4.6 mph - N/A Fog Fog
3:30 PM 35.6 °F 32.8 °F 35.6 °F 100% 30.15 in 0.2 mi ESE 3.5 mph - N/A Fog Fog
4:00 PM 35.6 °F 32.8 °F 35.6 °F 100% 30.15 in 0.2 mi East 3.5 mph - N/A Fog Fog
4:30 PM 33.8 °F 30.8 °F 33.8 °F 100% 30.15 in 0.1 mi ESE 3.5 mph - N/A Fog Fog
5:00 PM 33.8 °F 29.6 °F 33.8 °F 100% 30.15 in 0.2 mi ESE 4.6 mph - N/A Fog Fog
5:30 PM 33.8 °F 29.6 °F 33.8 °F 100% 30.15 in 0.2 mi East 4.6 mph - N/A Fog Fog
6:00 PM 33.8 °F 29.6 °F 33.8 °F 100% 30.15 in 0.2 mi ESE 4.6 mph - N/A Fog Fog
6:30 PM 35.6 °F 31.7 °F 35.6 °F 100% 30.15 in 0.4 mi ESE 4.6 mph - N/A Fog Fog
7:00 PM 35 °F - 35 °F 99% 30.21 in 0 mi East 3.5 mph - - Fog Heavy Fog
7:00 PM 35.6 °F 32.8 °F 35.6 °F 100% 30.15 in - East 3.5 mph - N/A Fog Fog
7:30 PM 35.6 °F 32.8 °F 35.6 °F 100% 30.12 in 0.5 mi East 3.5 mph - N/A Fog Fog
8:00 PM 35.6 °F 31.7 °F 35.6 °F 100% 30.12 in - ENE 4.6 mph - N/A Fog Fog
8:30 PM 33.8 °F 28.6 °F 33.8 °F 100% 30.12 in - ESE 5.8 mph - N/A Fog Fog
9:00 PM 33.8 °F - 33.8 °F 100% 30.12 in 0.5 mi Variable 2.3 mph - N/A Fog Fog
9:30 PM 33.8 °F - 33.8 °F 100% 30.12 in 0.7 mi Variable 2.3 mph - N/A   Mist
10:00 PM 35.6 °F 32.8 °F 35.6 °F 100% 30.12 in 0.6 mi Variable 3.5 mph - N/A Fog Fog
10:30 PM 35.6 °F - 35.6 °F 100% 30.12 in 1.5 mi Variable 2.3 mph - N/A   Overcast
11:00 PM 33.8 °F 30.8 °F 33.8 °F 100% 30.12 in 0.9 mi East 3.5 mph - N/A   Overcast
11:30 PM 33.8 °F 30.8 °F 33.8 °F 100% 30.12 in - Variable 3.5 mph - N/A   Overcast